EDW346M LSZH-LGRP

Flight info

Callsign EDW346M
Flight time 2h 37m
Altitude 39000
Route DEGES Z2 XEBIX L607 ELMEM N606 GIRIS DCT ALIVO DCT MITNO DCT VABEK UL603 OLOTA DCT DISOR DCT KOROS DCT MES UN139 LURUS UL995 USINI L995 CODIC
Aircraft A320/M-SDE2E3FGHIJ1RWXY/LB1

Departure

Time 2026-04-26 07:10
Airport Zürich Airport (LSZH)

Arrival

Time 2026-04-26 09:47
Airport Rhodes International Airport "Diagoras" (LGRP)
Time Latitude Longitude Altitude Speed Heading
2026-04-26 06:45 47.45355 8.55703 1402 ft 0 kts
2026-04-26 06:45 47.45349 8.55702 1402 ft 0 kts
2026-04-26 06:59 47.45338 8.55700 1405 ft 4 kts
2026-04-26 06:59 47.45316 8.55697 1401 ft 3 kts
2026-04-26 06:59 47.45290 8.55698 1401 ft 4 kts 340°
2026-04-26 07:00 47.45270 8.55719 1404 ft 4 kts 298°
2026-04-26 07:00 47.45263 8.55753 1399 ft 4 kts 276°
2026-04-26 07:00 47.45262 8.55768 1399 ft 0 kts 276°
2026-04-26 07:03 47.45263 8.55758 1398 ft 6 kts 276°
2026-04-26 07:03 47.45271 8.55644 1397 ft 12 kts 276°
2026-04-26 07:03 47.45290 8.55525 1404 ft 13 kts 296°
2026-04-26 07:04 47.45345 8.55408 1400 ft 15 kts 329°
2026-04-26 07:04 47.45455 8.55332 1405 ft 20 kts 335°
2026-04-26 07:04 47.45589 8.55240 1404 ft 23 kts 335°
2026-04-26 07:04 47.45739 8.55134 1402 ft 25 kts 334°
2026-04-26 07:05 47.45893 8.55027 1404 ft 25 kts 334°
2026-04-26 07:05 47.46047 8.54923 1397 ft 24 kts 334°
2026-04-26 07:05 47.46207 8.54811 1400 ft 26 kts 335°
2026-04-26 07:05 47.46361 8.54706 1397 ft 20 kts 335°
2026-04-26 07:06 47.46498 8.54611 1406 ft 23 kts 335°
2026-04-26 07:06 47.46650 8.54507 1401 ft 25 kts 335°
2026-04-26 07:06 47.46813 8.54407 1398 ft 25 kts 340°
2026-04-26 07:06 47.46976 8.54298 1400 ft 26 kts 335°
2026-04-26 07:07 47.47127 8.54193 1398 ft 24 kts 335°
2026-04-26 07:07 47.47285 8.54085 1399 ft 26 kts 334°
2026-04-26 07:07 47.47453 8.53970 1399 ft 28 kts 335°
2026-04-26 07:07 47.47582 8.53876 1403 ft 16 kts 323°
2026-04-26 07:08 47.47601 8.53722 1406 ft 17 kts 247°
2026-04-26 07:08 47.47567 8.53617 1401 ft 7 kts 235°
2026-04-26 07:08 47.47536 8.53619 1399 ft 3 kts 151°
2026-04-26 07:08 47.47525 8.53627 1406 ft 0 kts 154°
2026-04-26 07:09 47.47467 8.53667 1400 ft 41 kts 155°
2026-04-26 07:09 47.46968 8.54012 1401 ft 113 kts 155°
2026-04-26 07:10 47.43935 8.56115 2800 ft 175 kts 148°
2026-04-26 07:11 47.43243 8.59460 3597 ft 206 kts 62°
2026-04-26 07:11 47.44092 8.61204 4384 ft 211 kts 54°
2026-04-26 07:11 47.44681 8.62355 4950 ft 214 kts 53°
2026-04-26 07:11 47.45839 8.64787 5957 ft 223 kts 66°
2026-04-26 07:12 47.46148 8.66279 6427 ft 231 kts 81°
2026-04-26 07:12 47.46296 8.69627 7011 ft 262 kts 86°
2026-04-26 07:12 47.46379 8.72403 7668 ft 275 kts 86°
2026-04-26 07:12 47.46481 8.75260 8503 ft 281 kts 86°
2026-04-26 07:13 47.46592 8.78172 9410 ft 286 kts 85°
2026-04-26 07:13 47.46698 8.81142 10251 ft 293 kts 87°
2026-04-26 07:13 47.46611 8.83191 10736 ft 300 kts 97°
2026-04-26 07:13 47.46120 8.86313 11080 ft 324 kts 102°
2026-04-26 07:14 47.45595 8.89671 11339 ft 347 kts 101°
2026-04-26 07:14 47.45072 8.93274 11532 ft 370 kts 101°
2026-04-26 07:14 47.44544 8.97056 11719 ft 390 kts 101°
2026-04-26 07:14 47.43995 9.01035 12254 ft 399 kts 101°
2026-04-26 07:15 47.43435 9.05071 12908 ft 403 kts 101°
2026-04-26 07:15 47.42856 9.09146 13580 ft 408 kts 101°
2026-04-26 07:15 47.42253 9.13316 14230 ft 412 kts 101°
2026-04-26 07:15 47.41757 9.17445 14808 ft 416 kts 95°
2026-04-26 07:16 47.41697 9.21722 15399 ft 418 kts 85°
2026-04-26 07:16 47.42123 9.25978 15962 ft 421 kts 76°
2026-04-26 07:16 47.42778 9.30206 16535 ft 424 kts 76°
2026-04-26 07:16 47.43442 9.34534 17084 ft 428 kts 76°
2026-04-26 07:17 47.44088 9.38779 17636 ft 431 kts 76°
2026-04-26 07:17 47.44744 9.43119 18148 ft 435 kts 76°
2026-04-26 07:17 47.45401 9.47495 18651 ft 438 kts 76°
2026-04-26 07:17 47.46061 9.51912 19080 ft 442 kts 76°
2026-04-26 07:18 47.46718 9.56362 19485 ft 445 kts 78°
2026-04-26 07:18 47.47091 9.60917 19888 ft 449 kts 86°
2026-04-26 07:18 47.46993 9.65541 20297 ft 452 kts 94°
2026-04-26 07:18 47.46729 9.70183 20689 ft 454 kts 94°
2026-04-26 07:19 47.46470 9.74846 21043 ft 457 kts 94°
2026-04-26 07:19 47.46211 9.79542 21396 ft 460 kts 94°
2026-04-26 07:19 47.45951 9.84263 21736 ft 462 kts 94°
2026-04-26 07:19 47.45687 9.89012 22078 ft 465 kts 94°
2026-04-26 07:20 47.45419 9.93785 22415 ft 468 kts 94°
2026-04-26 07:20 47.45148 9.98586 22738 ft 470 kts 94°
2026-04-26 07:20 47.44872 10.03410 23052 ft 472 kts 94°
2026-04-26 07:20 47.44594 10.08250 23388 ft 474 kts 93°
2026-04-26 07:21 47.44311 10.13117 23703 ft 476 kts 93°
2026-04-26 07:21 47.44001 10.18003 23948 ft 479 kts 96°
2026-04-26 07:21 47.43399 10.22856 24186 ft 482 kts 100°
2026-04-26 07:21 47.42740 10.27712 24417 ft 483 kts 100°
2026-04-26 07:22 47.42082 10.32586 24650 ft 485 kts 100°
2026-04-26 07:22 47.41291 10.37433 24862 ft 487 kts 107°
2026-04-26 07:22 47.39983 10.42056 25066 ft 490 kts 117°
2026-04-26 07:22 47.38158 10.46308 25262 ft 492 kts 127°
2026-04-26 07:23 47.35867 10.50065 25425 ft 494 kts 136°
2026-04-26 07:23 47.33183 10.53225 25576 ft 495 kts 146°
2026-04-26 07:23 47.30204 10.55770 25701 ft 496 kts 152°
2026-04-26 07:23 47.27165 10.58188 25858 ft 496 kts 152°
2026-04-26 07:24 47.24129 10.60595 26062 ft 496 kts 152°
2026-04-26 07:24 47.21093 10.62994 26282 ft 495 kts 152°
2026-04-26 07:24 47.18055 10.65374 26467 ft 495 kts 153°
2026-04-26 07:24 47.14898 10.67361 26686 ft 493 kts 160°
2026-04-26 07:25 47.11684 10.69117 26881 ft 493 kts 160°
2026-04-26 07:25 47.08475 10.70875 27092 ft 492 kts 160°
2026-04-26 07:25 47.05269 10.72628 27304 ft 492 kts 160°
2026-04-26 07:25 47.02064 10.74378 27492 ft 493 kts 160°
2026-04-26 07:26 46.98856 10.76150 27672 ft 494 kts 160°
2026-04-26 07:26 46.95645 10.77960 27893 ft 494 kts 159°
2026-04-26 07:26 46.92490 10.79759 28116 ft 493 kts 159°
2026-04-26 07:26 46.89257 10.81611 28351 ft 493 kts 159°
2026-04-26 07:27 46.86107 10.83404 28565 ft 492 kts 159°
2026-04-26 07:27 46.82940 10.85447 28823 ft 491 kts 152°
2026-04-26 07:27 46.80068 10.88139 29080 ft 491 kts 142°
2026-04-26 07:27 46.77570 10.91428 29323 ft 490 kts 133°
2026-04-26 07:28 46.75452 10.95310 29536 ft 489 kts 123°
2026-04-26 07:28 46.73801 10.99632 29779 ft 488 kts 113°
2026-04-26 07:28 46.72446 11.04161 30060 ft 487 kts 112°
2026-04-26 07:28 46.71088 11.08684 30262 ft 487 kts 112°
2026-04-26 07:29 46.69705 11.13256 30427 ft 487 kts 112°
2026-04-26 07:29 46.68334 11.17760 30633 ft 487 kts 113°
2026-04-26 07:29 46.66960 11.22259 30855 ft 486 kts 113°
2026-04-26 07:29 46.65606 11.26691 31055 ft 485 kts 113°
2026-04-26 07:30 46.64237 11.31173 31279 ft 484 kts 113°
2026-04-26 07:30 46.62870 11.35650 31499 ft 484 kts 113°
2026-04-26 07:30 46.61501 11.40122 31724 ft 483 kts 113°
2026-04-26 07:30 46.60135 11.44581 31951 ft 483 kts 113°
2026-04-26 07:31 46.58768 11.49036 32154 ft 482 kts 113°
2026-04-26 07:31 46.57399 11.53486 32365 ft 482 kts 113°
2026-04-26 07:31 46.56032 11.57925 32602 ft 481 kts 113°
2026-04-26 07:31 46.54663 11.62359 32848 ft 480 kts 113°
2026-04-26 07:32 46.53298 11.66781 33085 ft 480 kts 114°
2026-04-26 07:32 46.51932 11.71197 33317 ft 479 kts 114°
2026-04-26 07:32 46.50564 11.75604 33554 ft 478 kts 114°
2026-04-26 07:32 46.49195 11.80002 33785 ft 478 kts 114°
2026-04-26 07:33 46.47830 11.84392 34009 ft 477 kts 114°
2026-04-26 07:33 46.46465 11.88775 34235 ft 477 kts 114°
2026-04-26 07:33 46.45098 11.93155 34428 ft 477 kts 114°
2026-04-26 07:33 46.43729 11.97528 34623 ft 476 kts 114°
2026-04-26 07:34 46.42356 12.01895 34827 ft 476 kts 114°
2026-04-26 07:34 46.40983 12.06260 35024 ft 476 kts 114°
2026-04-26 07:34 46.39609 12.10618 35230 ft 475 kts 114°
2026-04-26 07:34 46.38237 12.14969 35422 ft 475 kts 114°
2026-04-26 07:35 46.36864 12.19321 35601 ft 475 kts 114°
2026-04-26 07:35 46.35490 12.23676 35785 ft 475 kts 114°
2026-04-26 07:35 46.34113 12.28025 35963 ft 475 kts 114°
2026-04-26 07:35 46.32735 12.32370 36142 ft 476 kts 115°
2026-04-26 07:36 46.31352 12.36715 36338 ft 475 kts 115°
2026-04-26 07:36 46.29972 12.41052 36489 ft 475 kts 115°
2026-04-26 07:36 46.28590 12.45387 36636 ft 475 kts 115°
2026-04-26 07:36 46.27205 12.49721 36764 ft 475 kts 114°
2026-04-26 07:37 46.25822 12.54054 36908 ft 475 kts 115°
2026-04-26 07:37 46.24435 12.58389 37055 ft 476 kts 115°
2026-04-26 07:37 46.23044 12.62723 37205 ft 475 kts 115°
2026-04-26 07:37 46.21652 12.67054 37352 ft 475 kts 115°
2026-04-26 07:38 46.20255 12.71378 37489 ft 475 kts 115°
2026-04-26 07:38 46.18855 12.75698 37621 ft 475 kts 115°
2026-04-26 07:38 46.17454 12.80017 37761 ft 475 kts 115°
2026-04-26 07:38 46.16054 12.84332 37903 ft 475 kts 115°
2026-04-26 07:39 46.14654 12.88641 38041 ft 475 kts 115°
2026-04-26 07:39 46.13252 12.92951 38181 ft 475 kts 115°
2026-04-26 07:39 46.11852 12.97254 38318 ft 474 kts 115°
2026-04-26 07:39 46.10451 13.01553 38461 ft 474 kts 115°
2026-04-26 07:40 46.09051 13.05852 38603 ft 474 kts 115°
2026-04-26 07:40 46.07652 13.10145 38742 ft 473 kts 115°
2026-04-26 07:40 46.06251 13.14429 38876 ft 473 kts 115°
2026-04-26 07:40 46.04849 13.18704 39025 ft 471 kts 115°
2026-04-26 07:41 46.03446 13.22976 39098 ft 473 kts 115°
2026-04-26 07:41 46.00619 13.31542 39108 ft 475 kts 115°
2026-04-26 07:42 45.97784 13.40124 39108 ft 475 kts 115°
2026-04-26 07:42 45.94947 13.48705 39111 ft 475 kts 115°
2026-04-26 07:43 45.92096 13.57270 39116 ft 475 kts 115°
2026-04-26 07:43 45.89233 13.65819 39119 ft 476 kts 115°
2026-04-26 07:44 45.86369 13.74384 39125 ft 476 kts 115°
2026-04-26 07:44 45.83497 13.82948 39126 ft 476 kts 115°
2026-04-26 07:45 45.80615 13.91501 39132 ft 477 kts 115°
2026-04-26 07:45 45.77722 14.00050 39126 ft 477 kts 115°
2026-04-26 07:46 45.74818 14.08587 39123 ft 477 kts 115°
2026-04-26 07:46 45.71911 14.17117 39126 ft 477 kts 115°
2026-04-26 07:47 45.69005 14.25642 39136 ft 477 kts 115°
2026-04-26 07:47 45.66090 14.34156 39118 ft 477 kts 115°
2026-04-26 07:48 45.63163 14.42664 39125 ft 477 kts 115°
2026-04-26 07:48 45.60230 14.51161 39129 ft 477 kts 115°
2026-04-26 07:49 45.57296 14.59649 39128 ft 477 kts 115°
2026-04-26 07:49 45.54358 14.68127 39133 ft 476 kts 115°
2026-04-26 07:50 45.49922 14.80740 39137 ft 476 kts 116°
2026-04-26 07:50 45.46894 14.89135 39138 ft 476 kts 116°
2026-04-26 07:51 45.43858 14.97527 39144 ft 477 kts 116°
2026-04-26 07:51 45.40823 15.05920 39140 ft 477 kts 116°
2026-04-26 07:52 45.37778 15.14316 39136 ft 477 kts 116°
2026-04-26 07:52 45.34731 15.22705 39135 ft 478 kts 116°
2026-04-26 07:53 45.31671 15.31078 39134 ft 477 kts 116°
2026-04-26 07:53 45.28609 15.39443 39140 ft 477 kts 116°
2026-04-26 07:54 45.25547 15.47802 39140 ft 477 kts 116°
2026-04-26 07:54 45.22472 15.56146 39140 ft 477 kts 117°
2026-04-26 07:55 45.19382 15.64480 39137 ft 477 kts 117°
2026-04-26 07:55 45.16296 15.72809 39141 ft 477 kts 117°
2026-04-26 07:56 45.13707 15.79785 39138 ft 477 kts 117°
2026-04-26 07:56 45.10611 15.88105 39135 ft 477 kts 117°
2026-04-26 07:57 45.07509 15.96416 39143 ft 478 kts 117°
2026-04-26 07:57 45.04390 16.04717 39136 ft 478 kts 117°
2026-04-26 07:58 45.01272 16.13018 39121 ft 478 kts 117°
2026-04-26 07:58 44.98153 16.21301 39131 ft 477 kts 117°
2026-04-26 07:59 44.95023 16.29571 39136 ft 477 kts 117°
2026-04-26 07:59 44.91891 16.37827 39130 ft 477 kts 117°
2026-04-26 08:00 44.88751 16.46078 39129 ft 477 kts 118°
2026-04-26 08:00 44.85609 16.54314 39124 ft 477 kts 117°
2026-04-26 08:01 44.82483 16.62486 39126 ft 477 kts 118°
2026-04-26 08:01 44.79324 16.70698 39123 ft 477 kts 118°
2026-04-26 08:02 44.76164 16.78899 39123 ft 477 kts 118°
2026-04-26 08:02 44.72999 16.87094 39119 ft 476 kts 118°
2026-04-26 08:03 44.69826 16.95276 39114 ft 477 kts 118°
2026-04-26 08:03 44.66654 17.03455 39116 ft 477 kts 118°
2026-04-26 08:04 44.63477 17.11632 39117 ft 477 kts 118°
2026-04-26 08:04 44.60285 17.19792 39118 ft 477 kts 118°
2026-04-26 08:05 44.57080 17.27949 39127 ft 477 kts 118°
2026-04-26 08:05 44.53879 17.36099 39126 ft 477 kts 118°
2026-04-26 08:06 44.50673 17.44251 39129 ft 477 kts 118°
2026-04-26 08:06 44.47463 17.52387 39136 ft 477 kts 118°
2026-04-26 08:07 44.44239 17.60517 39135 ft 478 kts 118°
2026-04-26 08:07 44.41005 17.68634 39138 ft 478 kts 118°
2026-04-26 08:08 44.37765 17.76752 39135 ft 478 kts 119°
2026-04-26 08:08 44.34516 17.84855 39138 ft 478 kts 119°
2026-04-26 08:09 44.31263 17.92959 39138 ft 478 kts 119°
2026-04-26 08:09 44.28010 18.01065 39142 ft 479 kts 119°
2026-04-26 08:10 44.24749 18.09159 39141 ft 479 kts 119°
2026-04-26 08:10 44.21471 18.17252 39154 ft 480 kts 119°
2026-04-26 08:11 44.18187 18.25349 39153 ft 480 kts 119°
2026-04-26 08:11 44.14900 18.33444 39146 ft 480 kts 119°
2026-04-26 08:12 44.11598 18.41518 39146 ft 480 kts 119°
2026-04-26 08:12 44.08317 18.49537 39149 ft 480 kts 119°
2026-04-26 08:13 44.05010 18.57607 39151 ft 480 kts 119°
2026-04-26 08:13 44.01694 18.65664 39145 ft 480 kts 120°
2026-04-26 08:14 43.98369 18.73697 39145 ft 480 kts 120°
2026-04-26 08:14 43.95042 18.81721 39148 ft 480 kts 120°
2026-04-26 08:15 43.91713 18.89768 39151 ft 481 kts 120°
2026-04-26 08:15 43.88378 18.97805 39150 ft 481 kts 120°
2026-04-26 08:16 43.85027 19.05822 39144 ft 481 kts 120°
2026-04-26 08:16 43.81670 19.13839 39142 ft 482 kts 120°
2026-04-26 08:17 43.78301 19.21860 39142 ft 482 kts 120°
2026-04-26 08:17 43.74460 19.29435 39139 ft 482 kts 128°
2026-04-26 08:18 43.70411 19.36821 39130 ft 482 kts 128°
2026-04-26 08:18 43.66359 19.44207 39135 ft 483 kts 128°
2026-04-26 08:19 43.62306 19.51597 39132 ft 483 kts 128°
2026-04-26 08:19 43.58242 19.58977 39128 ft 483 kts 128°
2026-04-26 08:20 43.54165 19.66343 39128 ft 483 kts 128°
2026-04-26 08:20 43.50082 19.73709 39129 ft 484 kts 128°
2026-04-26 08:21 43.45991 19.81073 39125 ft 484 kts 128°
2026-04-26 08:21 43.41893 19.88437 39113 ft 485 kts 129°
2026-04-26 08:22 43.37783 19.95801 39115 ft 486 kts 128°
2026-04-26 08:22 43.33663 20.03165 39110 ft 486 kts 129°
2026-04-26 08:23 43.29536 20.10519 39121 ft 486 kts 129°
2026-04-26 08:23 43.25426 20.17822 39112 ft 487 kts 129°
2026-04-26 08:24 43.21288 20.25175 39115 ft 487 kts 129°
2026-04-26 08:24 43.17145 20.32528 39115 ft 487 kts 129°
2026-04-26 08:25 43.12988 20.39862 39106 ft 488 kts 129°
2026-04-26 08:25 43.08817 20.47180 39113 ft 488 kts 129°
2026-04-26 08:26 43.04642 20.54507 39112 ft 489 kts 129°
2026-04-26 08:26 43.00429 20.61793 39111 ft 488 kts 134°
2026-04-26 08:27 42.95606 20.68278 39117 ft 486 kts 138°
2026-04-26 08:27 42.90716 20.74652 39112 ft 486 kts 138°
2026-04-26 08:28 42.85825 20.81029 39119 ft 487 kts 138°
2026-04-26 08:28 42.80928 20.87408 39116 ft 487 kts 138°
2026-04-26 08:29 42.76023 20.93778 39123 ft 487 kts 138°
2026-04-26 08:29 42.71110 21.00138 39124 ft 488 kts 138°
2026-04-26 08:30 42.66189 21.06490 39131 ft 488 kts 138°
2026-04-26 08:30 42.61264 21.12833 39121 ft 488 kts 139°
2026-04-26 08:31 42.56332 21.19170 39130 ft 488 kts 139°
2026-04-26 08:31 42.51400 21.25497 39127 ft 488 kts 139°
2026-04-26 08:32 42.46468 21.31823 39122 ft 488 kts 139°
2026-04-26 08:32 42.41533 21.38121 39114 ft 488 kts 139°
2026-04-26 08:33 42.36588 21.44409 39089 ft 488 kts 139°
2026-04-26 08:33 42.31649 21.50688 39103 ft 487 kts 139°
2026-04-26 08:34 42.26714 21.56951 39102 ft 487 kts 139°
2026-04-26 08:34 42.21773 21.63189 39104 ft 486 kts 140°
2026-04-26 08:35 42.16719 21.69248 39104 ft 486 kts 141°
2026-04-26 08:35 42.11633 21.75150 39105 ft 486 kts 141°
2026-04-26 08:36 42.06529 21.81099 39106 ft 485 kts 141°
2026-04-26 08:36 42.01455 21.87078 39108 ft 485 kts 140°
2026-04-26 08:37 41.96394 21.93053 39105 ft 484 kts 140°
2026-04-26 08:37 41.91326 21.99002 39102 ft 484 kts 141°
2026-04-26 08:38 41.86251 22.04927 39102 ft 483 kts 141°
2026-04-26 08:38 41.81179 22.10841 39094 ft 483 kts 140°
2026-04-26 08:39 41.76115 22.16741 39100 ft 482 kts 140°
2026-04-26 08:39 41.71050 22.22618 39096 ft 482 kts 141°
2026-04-26 08:40 41.65982 22.28484 39097 ft 481 kts 141°
2026-04-26 08:40 41.60918 22.34337 39091 ft 481 kts 141°
2026-04-26 08:41 41.55857 22.40180 39081 ft 480 kts 140°
2026-04-26 08:41 41.50800 22.45998 39089 ft 480 kts 140°
2026-04-26 08:42 41.45745 22.51810 39081 ft 479 kts 140°
2026-04-26 08:42 41.40696 22.57604 39080 ft 479 kts 140°
2026-04-26 08:43 41.36496 22.62407 39073 ft 479 kts 140°
2026-04-26 08:43 41.31441 22.68172 39066 ft 478 kts 140°
2026-04-26 08:44 41.26391 22.73923 39063 ft 478 kts 140°
2026-04-26 08:44 41.21288 22.79579 39073 ft 477 kts 142°
2026-04-26 08:45 41.16054 22.85005 39067 ft 477 kts 143°
2026-04-26 08:45 41.10793 22.90378 39066 ft 477 kts 143°
2026-04-26 08:46 41.05555 22.95794 39061 ft 477 kts 143°
2026-04-26 08:46 41.00333 23.01225 39063 ft 477 kts 142°
2026-04-26 08:47 40.95109 23.06651 39069 ft 477 kts 143°
2026-04-26 08:47 40.89884 23.12061 39065 ft 477 kts 142°
2026-04-26 08:48 40.84650 23.17457 39065 ft 477 kts 143°
2026-04-26 08:48 40.79411 23.22847 39060 ft 477 kts 142°
2026-04-26 08:49 40.74171 23.28223 39062 ft 477 kts 142°
2026-04-26 08:49 40.68930 23.33593 39064 ft 477 kts 142°
2026-04-26 08:50 40.63694 23.38959 39066 ft 477 kts 142°
2026-04-26 08:50 40.58454 23.44321 39072 ft 477 kts 142°
2026-04-26 08:51 40.50579 23.52330 39071 ft 477 kts 142°
2026-04-26 08:52 40.45339 23.57659 39066 ft 476 kts 142°
2026-04-26 08:52 40.40104 23.62973 39064 ft 475 kts 142°
2026-04-26 08:53 40.34868 23.68269 39068 ft 475 kts 142°
2026-04-26 08:53 40.29663 23.73519 39066 ft 475 kts 142°
2026-04-26 08:54 40.24423 23.78800 39072 ft 475 kts 142°
2026-04-26 08:54 40.19181 23.84067 39067 ft 475 kts 142°
2026-04-26 08:55 40.13940 23.89325 39064 ft 475 kts 142°
2026-04-26 08:55 40.08700 23.94578 39064 ft 475 kts 142°
2026-04-26 08:56 40.03453 23.99822 39060 ft 475 kts 142°
2026-04-26 08:56 39.98207 24.05054 39065 ft 475 kts 142°
2026-04-26 08:57 39.92968 24.10287 39078 ft 475 kts 142°
2026-04-26 08:57 39.87718 24.15510 39074 ft 475 kts 142°
2026-04-26 08:58 39.82464 24.20717 39075 ft 475 kts 142°
2026-04-26 08:58 39.77210 24.25916 39074 ft 475 kts 142°
2026-04-26 08:59 39.71954 24.31108 39074 ft 474 kts 142°
2026-04-26 08:59 39.66700 24.36290 39074 ft 474 kts 142°
2026-04-26 09:00 39.61444 24.41453 39075 ft 474 kts 142°
2026-04-26 09:00 39.56186 24.46610 39073 ft 474 kts 142°
2026-04-26 09:01 39.50931 24.51757 39073 ft 474 kts 141°
2026-04-26 09:01 39.45672 24.56904 39078 ft 474 kts 141°
2026-04-26 09:02 39.40414 24.62046 39077 ft 474 kts 141°
2026-04-26 09:02 39.35158 24.67177 39075 ft 474 kts 142°
2026-04-26 09:03 39.29889 24.72297 39076 ft 474 kts 142°
2026-04-26 09:03 39.24618 24.77403 39075 ft 474 kts 142°
2026-04-26 09:04 39.19344 24.82511 39078 ft 474 kts 142°
2026-04-26 09:04 39.14072 24.87607 39078 ft 474 kts 142°
2026-04-26 09:05 39.08891 24.92846 39081 ft 472 kts 135°
2026-04-26 09:05 39.04071 24.98578 39078 ft 472 kts 135°
2026-04-26 09:06 38.99249 25.04287 39083 ft 471 kts 135°
2026-04-26 09:06 38.94422 25.09985 39080 ft 471 kts 135°
2026-04-26 09:07 38.89601 25.15675 39076 ft 471 kts 135°
2026-04-26 09:07 38.84776 25.21348 39074 ft 470 kts 135°
2026-04-26 09:08 38.79955 25.27006 39070 ft 470 kts 135°
2026-04-26 09:08 38.75169 25.32629 39068 ft 469 kts 135°
2026-04-26 09:09 38.70318 25.38303 39071 ft 469 kts 135°
2026-04-26 09:09 38.65491 25.43922 39070 ft 469 kts 135°
2026-04-26 09:10 38.60669 25.49528 39065 ft 468 kts 135°
2026-04-26 09:10 38.55886 25.55092 39062 ft 468 kts 135°
2026-04-26 09:11 38.51067 25.60680 39064 ft 468 kts 135°
2026-04-26 09:11 38.46215 25.66303 39062 ft 468 kts 135°
2026-04-26 09:12 38.41393 25.71886 39062 ft 468 kts 135°
2026-04-26 09:12 38.36602 25.77426 39048 ft 468 kts 135°
2026-04-26 09:13 38.31767 25.82996 39043 ft 469 kts 135°
2026-04-26 09:13 38.26873 25.88479 39036 ft 470 kts 141°
2026-04-26 09:14 38.21117 25.92430 39031 ft 474 kts 159°
2026-04-26 09:14 38.14905 25.95247 39041 ft 474 kts 159°
2026-04-26 09:15 38.08696 25.98079 39037 ft 475 kts 159°
2026-04-26 09:15 38.02473 26.00914 39030 ft 475 kts 159°
2026-04-26 09:16 37.96240 26.03747 39035 ft 476 kts 159°
2026-04-26 09:16 37.89996 26.06575 39039 ft 477 kts 159°
2026-04-26 09:17 37.83749 26.09402 39036 ft 477 kts 159°
2026-04-26 09:17 37.77506 26.12225 39035 ft 476 kts 159°
2026-04-26 09:18 37.71263 26.15048 39028 ft 476 kts 159°
2026-04-26 09:18 37.65014 26.17854 39031 ft 477 kts 159°
2026-04-26 09:19 37.58764 26.20657 39027 ft 477 kts 159°
2026-04-26 09:19 37.52510 26.23465 39026 ft 477 kts 159°
2026-04-26 09:20 37.46252 26.26260 39027 ft 477 kts 159°
2026-04-26 09:20 37.39996 26.29051 39028 ft 477 kts 160°
2026-04-26 09:21 37.33746 26.31840 39016 ft 477 kts 160°
2026-04-26 09:21 37.27493 26.34632 39025 ft 477 kts 160°
2026-04-26 09:22 37.21242 26.37400 39018 ft 476 kts 160°
2026-04-26 09:22 37.14992 26.40161 39010 ft 476 kts 160°
2026-04-26 09:23 37.08747 26.42930 39014 ft 476 kts 160°
2026-04-26 09:23 37.02510 26.45700 39009 ft 476 kts 160°
2026-04-26 09:24 36.96273 26.48460 39010 ft 475 kts 158°
2026-04-26 09:24 36.93306 26.50261 39008 ft 474 kts 147°
2026-04-26 09:24 36.90641 26.52669 39000 ft 472 kts 137°
2026-04-26 09:25 36.86536 26.58977 38998 ft 469 kts 117°
2026-04-26 09:25 36.83890 26.66394 38985 ft 468 kts 112°
2026-04-26 09:26 36.81310 26.73862 38992 ft 469 kts 112°
2026-04-26 09:26 36.79162 26.80075 38989 ft 469 kts 112°
2026-04-26 09:27 36.76576 26.87546 38726 ft 469 kts 112°
2026-04-26 09:27 36.75285 26.91268 38476 ft 467 kts 112°
2026-04-26 09:27 36.74002 26.94984 38198 ft 466 kts 112°
2026-04-26 09:27 36.72722 26.98688 37923 ft 465 kts 112°
2026-04-26 09:28 36.71441 27.02386 37655 ft 464 kts 112°
2026-04-26 09:28 36.70160 27.06080 37393 ft 464 kts 112°
2026-04-26 09:28 36.68875 27.09764 37123 ft 464 kts 112°
2026-04-26 09:28 36.67590 27.13446 36862 ft 463 kts 111°
2026-04-26 09:29 36.66308 27.17122 36607 ft 463 kts 111°
2026-04-26 09:29 36.65025 27.20788 36349 ft 462 kts 112°
2026-04-26 09:29 36.63744 27.24449 36069 ft 461 kts 111°
2026-04-26 09:29 36.62461 27.28110 35184 ft 462 kts 111°
2026-04-26 09:30 36.61174 27.31779 34275 ft 461 kts 110°
2026-04-26 09:30 36.59896 27.35429 33267 ft 460 kts 110°
2026-04-26 09:30 36.58617 27.39071 32148 ft 459 kts 110°
2026-04-26 09:30 36.57336 27.42702 31047 ft 458 kts 110°
2026-04-26 09:31 36.56057 27.46317 29921 ft 456 kts 110°
2026-04-26 09:31 36.54782 27.49926 28563 ft 456 kts 111°
2026-04-26 09:31 36.53508 27.53530 27268 ft 455 kts 111°
2026-04-26 09:31 36.52237 27.57118 26022 ft 453 kts 111°
2026-04-26 09:32 36.50968 27.60689 24831 ft 445 kts 111°
2026-04-26 09:32 36.49737 27.64140 23731 ft 430 kts 112°
2026-04-26 09:32 36.48530 27.67519 22524 ft 425 kts 112°
2026-04-26 09:32 36.47353 27.70850 21340 ft 417 kts 110°
2026-04-26 09:33 36.46467 27.74230 20283 ft 408 kts 102°
2026-04-26 09:33 36.45958 27.77669 19429 ft 402 kts 98°
2026-04-26 09:33 36.45510 27.81076 18570 ft 397 kts 98°
2026-04-26 09:33 36.45056 27.84461 17668 ft 398 kts 98°
2026-04-26 09:34 36.44585 27.87842 16829 ft 396 kts 101°
2026-04-26 09:34 36.43803 27.91111 16027 ft 395 kts 110°
2026-04-26 09:34 36.42576 27.94167 15233 ft 396 kts 120°
2026-04-26 09:34 36.40970 27.96939 14459 ft 395 kts 126°
2026-04-26 09:35 36.39294 27.99635 13702 ft 393 kts 126°
2026-04-26 09:35 36.37627 28.02319 12901 ft 392 kts 126°
2026-04-26 09:35 36.35977 28.04980 12171 ft 386 kts 126°
2026-04-26 09:35 36.34352 28.07601 11440 ft 380 kts 126°
2026-04-26 09:36 36.32787 28.10168 11117 ft 364 kts 125°
2026-04-26 09:36 36.31342 28.12632 11005 ft 343 kts 124°
2026-04-26 09:36 36.29995 28.14978 10886 ft 325 kts 123°
2026-04-26 09:36 36.28721 28.17211 10770 ft 309 kts 123°
2026-04-26 09:37 36.27506 28.19336 10649 ft 295 kts 123°
2026-04-26 09:37 36.26342 28.21361 10515 ft 283 kts 123°
2026-04-26 09:37 36.25213 28.23318 10283 ft 275 kts 123°
2026-04-26 09:37 36.24103 28.25239 10220 ft 274 kts 123°
2026-04-26 09:38 36.23216 28.27298 10132 ft 271 kts 105°
2026-04-26 09:38 36.23079 28.29600 10018 ft 270 kts 82°
2026-04-26 09:38 36.23728 28.31778 9811 ft 274 kts 60°
2026-04-26 09:38 36.25102 28.33466 9233 ft 285 kts 33°
2026-04-26 09:39 36.26962 28.34301 8847 ft 286 kts 17°
2026-04-26 09:39 36.28898 28.34882 8409 ft 286 kts 17°
2026-04-26 09:39 36.30830 28.35445 8082 ft 283 kts 17°
2026-04-26 09:39 36.32726 28.35993 7400 ft 278 kts 16°
2026-04-26 09:40 36.34592 28.36534 6873 ft 268 kts 16°
2026-04-26 09:40 36.36327 28.37037 6742 ft 244 kts 18°
2026-04-26 09:40 36.37915 28.37497 6529 ft 229 kts 18°
2026-04-26 09:40 36.39467 28.37955 5931 ft 231 kts 17°
2026-04-26 09:41 36.41039 28.38421 5315 ft 233 kts 17°
2026-04-26 09:41 36.42634 28.38822 4701 ft 236 kts
2026-04-26 09:41 36.44295 28.38603 4087 ft 247 kts 345°
2026-04-26 09:41 36.45747 28.37621 3886 ft 237 kts 322°
2026-04-26 09:42 36.46809 28.36090 3820 ft 231 kts 301°
2026-04-26 09:42 36.47353 28.34267 3749 ft 220 kts 280°
2026-04-26 09:42 36.47378 28.32416 3599 ft 211 kts 261°
2026-04-26 09:42 36.46973 28.30705 3334 ft 203 kts 249°
2026-04-26 09:43 36.46499 28.29075 3073 ft 197 kts 249°
2026-04-26 09:43 36.46040 28.27495 2822 ft 192 kts 249°
2026-04-26 09:43 36.45596 28.25967 2575 ft 183 kts 249°
2026-04-26 09:43 36.45189 28.24567 2358 ft 162 kts 249°
2026-04-26 09:44 36.44825 28.23314 2144 ft 147 kts 249°
2026-04-26 09:44 36.44487 28.22154 1957 ft 139 kts 249°
2026-04-26 09:44 36.44162 28.21038 1776 ft 136 kts 249°
2026-04-26 09:44 36.43842 28.19941 1598 ft 134 kts 249°
2026-04-26 09:45 36.43528 28.18863 1420 ft 132 kts 249°
2026-04-26 09:45 36.43217 28.17797 1253 ft 131 kts 250°
2026-04-26 09:45 36.42909 28.16735 1093 ft 130 kts 249°
2026-04-26 09:45 36.42613 28.15684 958 ft 128 kts 249°
2026-04-26 09:46 36.42285 28.14655 788 ft 128 kts 250°
2026-04-26 09:46 36.41992 28.13617 639 ft 126 kts 252°
2026-04-26 09:46 36.41696 28.12578 477 ft 128 kts 251°
2026-04-26 09:46 36.41384 28.11537 288 ft 128 kts 251°
2026-04-26 09:47 36.41087 28.10505 111 ft 126 kts 251°
2026-04-26 09:47 36.40805 28.09534 30 ft 106 kts 250°
2026-04-26 09:47 36.40632 28.08938 29 ft 44 kts 250°
2026-04-26 09:47 36.40553 28.08674 28 ft 23 kts 248°
2026-04-26 09:48 36.40474 28.08658 28 ft 13 kts 123°
2026-04-26 09:48 36.40449 28.08721 28 ft 0 kts 115°
2026-04-26 09:49 36.40449 28.08722 28 ft 2 kts 115°
2026-04-26 09:49 36.40428 28.08767 28 ft 8 kts 127°
2026-04-26 09:49 36.40405 28.08822 28 ft 7 kts 104°
2026-04-26 09:49 36.40400 28.08880 28 ft 7 kts 96°
2026-04-26 09:50 36.40397 28.08936 28 ft 6 kts 91°
2026-04-26 09:50 36.40393 28.08988 28 ft 6 kts 115°
2026-04-26 09:50 36.40360 28.09016 28 ft 6 kts 159°
2026-04-26 09:50 36.40339 28.09026 28 ft 0 kts 159°